Zurück zum Katalog

STARLINK-35368

AktivKommunikationVLEO
NORAD 65830·PAYLOAD·🇺🇸 United States

Gestartet Sep 29, 2025 von Vandenberg Space Force Base

Loading…

Nächste Überflüge (nächste 24 Stunden)

TLE

AktuellSource: CelesTrak SupGP

Epoche: Sep 15, 2026, 03:04 UTC

1 65830C 25221H   26258.12826389  .00006170  00000+0  18228-3 0  2581
2 65830  53.1572 286.8753 0001203  86.7853 111.9266 15.34387187    13

Verfolge STARLINK-35368 in Echtzeit mit AllMySat

Download on the App Store